Regional Weather Roundup
Issued by NWS

Home | Current Version | Previous Version | Text Only | Print | Product List | Glossary On
Versions: 1 2 3 4 5 6 7 8 9 10 11 12 13 14 15 16 17 18 19 20 21 22 23 24 25 26 27 28 29 30 31 32 33 34 35 36 37 38 39 40 41 42 43 44 45 46 47 48 49 50
000
ASUS43 KMPX 011410
RWRMN
WEATHER ROUNDUP FOR MINNESOTA
NATIONAL WEATHER SERVICE TWIN CITIES/CHANHASSEN MN
800 AM CST MON MAR 01 2021


NOTE: "FAIR" INDICATES FEW OR NO CLOUDS BELOW 12,000 FEET WITH NO
SIGNIFICANT WEATHER AND/OR OBSTRUCTIONS TO VISIBILITY. N/A MEANS
CURRENT SKY AND/OR WEATHER CONDITIONS ARE NOT AVAILABLE.

MNZ060>063-068>070-011500-
   Twin Cities Metro

CITY           SKY/WX    TMP DP  RH WIND       PRES   REMARKS
TWIN CITIES    SUNNY     14   6  70 N13       30.33R WCI   0
ST PAUL        SUNNY     14   6  70 N10       30.35R WCI   1
CRYSTAL        SUNNY     13   4  67 N9        30.33R WCI   1
BLAINE         SUNNY     12   7  79 NW10      30.33R WCI  -1
LAKEVILLE      SUNNY     14   7  73 N5        30.32R WCI   6
EDEN PRAIRIE   MOSUNNY   14   7  73 N13       30.32R WCI   0
SOUTH ST PAUL  SUNNY     15   8  74 N8        30.33R WCI   4
LAKE ELMO      FAIR      12   5  73 MISG      30.33R
$$
MNZ001>005-007-008-013>017-022>024-027-028-011500-
   Northwest Minnesota

CITY           SKY/WX    TMP DP  RH WIND       PRES   REMARKS
BEMIDJI        CLEAR     -8 -15  69 CALM      30.32F
HALLOCK        CLEAR     -8 -15  71 CALM      30.41R
ROSEAU         CLEAR     -6 -20  49 CALM      30.38R
WARROAD        CLEAR    -11 -18  70 NW3       30.37R
THIEF RVR FALL CLEAR     -4 -12  68 CALM      30.40R
CROOKSTON      CLEAR     -6 -13  71 CALM      30.44R
FOSSTON        CLEAR     -8 -17  65 CALM      30.37R
DETROIT LAKES  CLEAR     -4  -9  77 NW5       30.35R WCI -15
MOORHEAD       PTCLDY     0 -11  60 N6        30.43R WCI -12
PARK RAPIDS    CLEAR     -1 -13  56 N9        30.32R WCI -16
MAHNOMEN       FAIR      -3 -11  68 NE7       30.37R WCI -17
$$
MNZ006-009>011-018-025>026-011500-
   North Central Minnesota

CITY           SKY/WX    TMP DP  RH WIND       PRES   REMARKS
BAUDETTE       PTCLDY   -12 -18  74 NW5       30.34F WCI -24
FLAG ISLAND    PTCLDY   -15 -20  76 W6        30.35R WCI -29
INTL FALLS     CLEAR     -9 -17  68 W5        30.33R WCI -20
WASKISH        PTCLDY    -9 -18  64 NW3       30.34F
BIG FORK       CLEAR     -8 -17  65 N3        30.37R
LONGVILLE      CLEAR     -2 -15  55 N3        30.33R
GRAND RAPIDS   CLEAR     -4 -14  62 N10       30.34R WCI -21
CRANE LAKE       N/A     -8 -17  65 NW6       30.35R WCI -21
ORR            SUNNY     -9 -18  64 NW7       30.28R WCI -24
COOK           SUNNY     -6 -15  65 NW5       30.29R WCI -17
WALKER         SUNNY     -4 -14  61 N5        30.34R WCI -14
$$
MNZ012-019>021-037-011500-
   Northeast Minnesota

CITY           SKY/WX    TMP DP  RH WIND       PRES   REMARKS
DULUTH         SUNNY      0 -13  54 NW9       30.27R WCI -15
ELY            SUNNY     -6 -17  59 NW8       30.26R WCI -21
HIBBING        SUNNY     -4 -14  62 NW15      30.29R WCI -25
EVELETH        SUNNY     -3 -14  59 N12       30.29R WCI -21
DULUTH HARBOR  SUNNY      3  -9  55 NW9       30.36R WCI -11
TWO HARBORS    SUNNY      0 -17  46 W6        30.28R WCI -12
SILVER BAY     SUNNY     -2 -17  50 NW7       30.27R WCI -16
GRAND MARAIS     N/A      2 -13  49 W3        30.29R
G MARAIS ARPRT SUNNY     -6 -17  59 NW8       30.12R WCI -21
$$
MNZ029>031-032-039>041-046>048-054>057-064-011500-
   West Central Minnesota

CITY           SKY/WX    TMP DP  RH WIND       PRES   REMARKS
FERGUS FALLS   PTCLDY    -4  -8  84 N5        30.35R WCI -15
WHEATON        PTCLDY     1  -6  71 NW8       30.42R WCI -12
MORRIS         CLEAR      3  -2  78 N9        30.37R WCI -11
ALEXANDRIA     CLEAR      3  -2  79 N7        30.33R WCI  -9
ELBOW LAKE     FAIR      -4  -8  86 N5        30.37R WCI -15
WADENA         CLEAR      0  -6  78 N8        30.33R WCI -15
GLENWOOD       CLEAR      3   0  85 N6        30.34R WCI  -8
APPLETON       CLEAR      9   3  78 N7        30.38R WCI  -3
BENSON         CLEAR      5   0  78 N5        30.37R WCI  -4
ORTONVILLE     CLEAR      7   0  72 N10       30.37R WCI  -8
MADISON        CLEAR     10   3  72 NW7       30.40R WCI   0
WILLMAR        FAIR       7   1  78 N8        30.36R WCI  -6
$$
MNZ033>034-036-042>043-049>051-058-059-011500-
   Central Minnesota

CITY           SKY/WX    TMP DP  RH WIND       PRES   REMARKS
ST CLOUD       SUNNY      6  -2  69 N8        30.33R WCI  -7
SAUK CENTRE      N/A      4  -1  81 N6        30.33R WCI  -7
PAYNESVILLE    CLEAR      5   5 100 CALM      30.34R
AITKIN         SUNNY      1  -8  66 NW5       30.34R WCI  -8
PINE RIVER     CLEAR      1  -9  60 N7        30.36R WCI -11
BRAINERD       CLEAR      3  -8  60 N12       30.34R WCI -13
STAPLES        CLEAR      0  -4  85 N7        30.33R WCI -13
LONG PRAIRIE   FAIR       5   0  78 N6        30.33R WCI  -6
LITTLE FALLS   CLEAR      7  -4  61 N5        30.35R WCI  -2
CAMP RIPLEY    FAIR       4  -4  69 N7        30.35  WCI  -8
LITCHFIELD     SUNNY      9   7  92 N6        30.33R WCI  -1
BUFFALO        SUNNY     10   4  77 MISG      30.35R
MAPLE LAKE       N/A      9   3  78 N8        30.35R WCI  -4
HUTCHINSON     SUNNY     11   8  88 N9        30.34R WCI  -1
$$
MNZ037-044-045-052-053-011500-
   East Central Minnesota

CITY           SKY/WX    TMP DP  RH WIND       PRES   REMARKS
PRINCETON      SUNNY      9   0  66 N5        30.33R WCI   0
MORA           SUNNY      7   0  72 NW9       30.34R WCI  -7
CAMBRIDGE      SUNNY     10   0  61 N7        30.34R WCI   0
RUSH CITY      SUNNY      8  -1  67 NW3       30.34R
MOOSE LAKE     SUNNY      3  -9  55 N7        30.31R WCI  -9
HINCKLEY       SUNNY      9  -4  56 CALM      30.33R
CLOQUET        SUNNY      0 -11  60 NW9       30.29R WCI -16
MCGREGOR       SUNNY      3  -8  60 N10       30.33R WCI -12
$$
MNZ071>073-080-081-089-090-097-098-011500-
   Southwest Minnesota

CITY           SKY/WX    TMP DP  RH WIND       PRES   REMARKS
MONTEVIDEO     CLEAR      9   3  78 N8        30.37R WCI  -4
GRANITE FALLS  CLEAR     11   7  83 NW8       30.38R WCI  -1
CANBY          CLEAR     10   5  81 N9        30.38R WCI  -3
MARSHALL       CLEAR     10   6  84 N9        30.35R WCI  -3
REDWOOD FALLS  CLEAR     14   8  77 N8        30.34R WCI   3
OLIVIA         CLEAR      9   7  92 N6        30.34R WCI  -1
PIPESTONE        N/A     12  10  92 NE15      30.27R WCI  -4
WINDOM         PTSUNNY   16  12  86 N14       30.28R WCI   1
WORTHINGTON    CLOUDY    17  14  88 N18       30.27R WCI   1
JACKSON        CLOUDY    19  16  86 N18G24    30.27R WCI   4
TRACY          CLEAR     13   8  80 N10       30.32R WCI   0
SLAYTON        MOCLDY    14  10  86 N12G18    30.28R FOG     WCI   0
$$
MNZ065>067-074>077-082>085-091>093-011500-
   South Central Minnesota

CITY           SKY/WX    TMP DP  RH WIND       PRES   REMARKS
MANKATO        MOSUNNY   16  12  86 N12       30.33R FOG     WCI   3
NEW ULM        SUNNY     14   9  79 N5        30.33R WCI   6
ST JAMES       MOSUNNY   18  12  79 N12       30.31R WCI   5
FAIRMONT       CLOUDY    19  16  88 N17       30.29R WCI   4
GLENCOE        SUNNY      8   5  87 NW5       30.33R WCI   0
FARIBAULT        N/A     14  10  85 N7        30.31R WCI   4
OWATONNA       MOSUNNY   16  12  86 N9        30.28R WCI   4
WASECA         SUNNY     14  12  92 N12       30.30R WCI   0
ALBERT LEA     CLOUDY    19  16  86 N10       30.26R WCI   8
$$
MNZ078>079-086>088-094>096-011500-
   Southeast Minnesota

CITY           SKY/WX    TMP DP  RH WIND       PRES   REMARKS
ROCHESTER      MOSUNNY   17  10  74 N16       30.25R WCI   2
RED WING       SUNNY     16   9  73 N8        30.31R WCI   5
STANTON        SUNNY     12   8  83 N9        30.30R WCI   0
DODGE CENTER   SUNNY     16  10  79 N9        30.26R WCI   4
WINONA         MOSUNNY   21  16  79 NW8       30.29R WCI  12
PRESTON        MOSUNNY   17  13  84 N13       30.24R WCI   4
$$
ABBREVIATIONS USED IN REMARKS
   TC - TEMPERATURES IN CELSIUS
  WCI - WIND CHILL INDEX
   HX - HEAT INDEX
  VSB - VISIBILITY
$$



USA.gov is the U.S. government's official web portal to all federal, state and local government web resources and services.